This is the latest recevied weather packets stored in our database for station/object K9NZF-1. If no packets are shown the sender has not sent any weather packets the latest 10 day(s).
| Time | Temp. | Humidity | Pressure | Rain* | Wind** | Luminosity | Snow |
|---|---|---|---|---|---|---|---|
| 1778354334 | 20.56° C | 65% | 1006.7 hPa | 0 mm | - | 847 W/m² | - |
| 1778354274 | 20.56° C | 67% | 1006.7 hPa | 0 mm | - | 847 W/m² | - |
| 1778354215 | 20.56° C | 67% | 1006.7 hPa | 0 mm | - | 849 W/m² | - |
| 1778354160 | 20.56° C | 69% | 1006.7 hPa | 0 mm | - | 849 W/m² | - |
| 1778354093 | 20.56° C | 68% | 1006.7 hPa | 0 mm | - | 851 W/m² | - |
| 1778354029 | 20.56° C | 68% | 1006.7 hPa | 0 mm | - | 853 W/m² | - |
| 1778353968 | 20.56° C | 67% | 1006.7 hPa | 0 mm | - | 854 W/m² | - |
| 1778353908 | 20.56° C | 70% | 1006.7 hPa | 0 mm | - | 858 W/m² | - |
| 1778353848 | 20.56° C | 69% | 1006.7 hPa | 0 mm | - | 858 W/m² | - |
| 1778353789 | 20.56° C | 70% | 1006.7 hPa | 0 mm | - | 858 W/m² | - |
| 1778353725 | 20.56° C | 69% | 1006.7 hPa | 0 mm | - | 860 W/m² | - |
| 1778353664 | 20° C | 70% | 1006.7 hPa | 0 mm | - | 860 W/m² | - |
| 1778353600 | 20° C | 71% | 1006.7 hPa | 0 mm | - | 863 W/m² | - |
| 1778353546 | 20° C | 69% | 1006.7 hPa | 0 mm | - | 863 W/m² | - |
| 1778353479 | 20° C | 69% | 1006.7 hPa | 0 mm | - | 865 W/m² | - |
| 1778353419 | 20° C | 66% | 1006.7 hPa | 0 mm | - | 870 W/m² | - |
| 1778353356 | 20° C | 68% | 1006.7 hPa | 0 mm | - | 870 W/m² | - |
| 1778353297 | 20° C | 68% | 1006.7 hPa | 0 mm | - | 874 W/m² | - |
| 1778353231 | 20° C | 70% | 1006.7 hPa | 0 mm | - | 874 W/m² | - |
| 1778353171 | 20° C | 71% | 1006.7 hPa | 0 mm | - | 874 W/m² | - |
| 1778353112 | 20° C | 70% | 1006.7 hPa | 0 mm | - | 875 W/m² | - |
| 1778353052 | 20° C | 70% | 1006.7 hPa | 0 mm | - | 875 W/m² | - |
| 1778352991 | 20° C | 69% | 1006.8 hPa | 0 mm | - | 881 W/m² | - |
| 1778352930 | 20° C | 69% | 1006.8 hPa | 0 mm | - | 879 W/m² | - |
| 1778352868 | 20° C | 69% | 1006.8 hPa | 0 mm | - | 881 W/m² | - |
* Rain latest hour (hover to see other rain measurements)
** Current wind speed in m/s (hover to see current wind gust speed)